This is the latest recevied weather packets stored in our database for station/object CE3MXM-13. If no packets are shown the sender has not sent any weather packets the latest 10 day(s).
| Time | Temp. | Humidity | Pressure | Rain* | Wind** | Luminosity | Snow |
|---|---|---|---|---|---|---|---|
| 1778165760 | 13.33° C | 88% | 1020.4 hPa | - | - | - | - |
| 1778165461 | 12.78° C | 92% | 1020.3 hPa | - | - | - | - |
| 1778165161 | 12.22° C | 94% | 1020.4 hPa | - | - | - | - |
| 1778164860 | 11.67° C | 95% | 1020.4 hPa | - | - | - | - |
| 1778164560 | 11.67° C | 96% | 1020.3 hPa | - | - | - | - |
| 1778164260 | 11.67° C | 97% | 1020.4 hPa | - | - | - | - |
| 1778163960 | 11.67° C | 97% | 1020.2 hPa | - | - | - | - |
| 1778163660 | 11.11° C | 97% | 1020.4 hPa | - | - | - | - |
| 1778163360 | 11.11° C | 98% | 1020.4 hPa | - | - | - | - |
| 1778163060 | 11.11° C | 98% | 1020.6 hPa | - | - | - | - |
| 1778162759 | 10.56° C | 99% | 1020.5 hPa | - | - | - | - |
| 1778162459 | 10.56° C | 99% | 1020.4 hPa | - | - | - | - |
| 1778162159 | 10.56° C | 99% | 1020.4 hPa | - | - | - | - |
| 1778161859 | 11.11° C | 99% | 1020.4 hPa | - | - | - | - |
| 1778161559 | 10.56° C | 99% | 1020.5 hPa | - | - | - | - |
| 1778161259 | 10° C | 99% | 1020.5 hPa | - | - | - | - |
| 1778160959 | 10° C | 99% | 1020.5 hPa | - | - | - | - |
| 1778160659 | 10° C | 99% | 1020.3 hPa | - | - | - | - |
| 1778160359 | 9.44° C | 99% | 1020.4 hPa | - | - | - | - |
| 1778160059 | 8.89° C | 98% | 1020.4 hPa | - | - | - | - |
| 1778159761 | 8.89° C | 98% | 1020.5 hPa | - | - | - | - |
| 1778159459 | 8.89° C | 98% | 1020.3 hPa | - | - | - | - |
| 1778159159 | 8.89° C | 99% | 1020.3 hPa | - | - | - | - |
| 1778158858 | 8.89° C | 98% | 1020.2 hPa | - | - | - | - |
| 1778158559 | 8.89° C | 98% | 1020.1 hPa | - | - | - | - |
* Rain since midnight (hover to see other rain measurements)
** Current wind speed in m/s (hover to see current wind gust speed)